Other Public Products
Issued by NWS Grand Forks, ND

Home | Current Version | Previous Version | Graphics & Text | Print | Product List | Glossary On
Versions: 1 2 3 4 5 6 7 8 9 10 11 12 13 14 15 16 17 18 19 20 21 22 23 24 25 26 27 28 29 30 31 32 33 34 35 36 37 38 39 40 41 42 43 44 45 46 47 48 49 50
000
FPUS83 KFGF 250910
OPUFGF
PRAIRIE TO PINES WEATHER ROUNDUP
NATIONAL WEATHER SERVICE EASTERN NORTH DAKOTA/GRAND FORKS ND
400 AM CDT TUE APR 25 2017

 **SATELLITE DATA USED TO AUGMENT SKY COVER AT AUTOMATED STATIONS**
 *****  WEATHER ACROSS EASTERN NORTH DAKOTA  *****

CITY           SKY/WX    TMP DP  RH WIND       PRES   REMARKS
GRAND FORKS    CLOUDY    32  30  92 N18       29.73R WCI  20
GRAND FORKS AF CLOUDY    30  28  92 N20       29.73S WCI  18
GRAND CITY NWS NOT AVBL
BUXTON         NOT AVBL
DEVILS LAKE    CLOUDY    29  26  89 N16       29.77R WCI  17
FARGO          CLOUDY    33  32  96 N24G30    29.66R WCI  20
WAHPETON ARPT  CLOUDY    34  32  93 N17G29    29.62R WCI  23
$$

 *****  WEATHER ACROSS CENTRAL AND WESTERN NORTH DAKOTA  *****

CITY           SKY/WX    TMP DP  RH WIND       PRES   REMARKS
JAMESTOWN      CLOUDY    31  29  92 N17       29.70S WCI  19
BISMARCK       CLOUDY    32  27  81 N15       29.77R WCI  22
MINOT          CLOUDY    31  26  82 N12       29.82S WCI  22
MINOT AFB      CLOUDY    30  25  80 NE16      29.83R WCI  19
GARRISON         N/A     29  24  82 NE9G17    29.80R WCI  20
WILLISTON      CLOUDY    31  24  75 NE15      29.86S WCI  20
DICKINSON      CLOUDY    28  26  92 NE15      29.73F WCI  16
HETTINGER      LGT SNOW  29  26  89 NE15      29.74S FOG     WCI  18
$$

 *****  OTHER OBSERVATIONS NORTHEAST NORTH DAKOTA  *****

CITY           SKY/WX    TMP DP  RH WIND       PRES   REMARKS
WALHALLA       NOT AVBL
LANGDON        CLOUDY    28  28 100 NE18G24   29.79R WCI  16
CAVALIER       CLOUDY    30  27  86 N15G23    29.79R WCI  19
GRAFTON        CLOUDY    30  30 100 N18G25    29.77S WCI  18
CANDO          NOT AVBL
FORT TOTTEN      N/A     29  29  99 NE8       29.95  WCI  21
ROLLA          CLOUDY    27  25  93 NE23      29.82R WCI  12
RUGBY          NOT AVBL
 ***** THE ABOVE OBSERVATIONS ARE NON NWS ARE NOT QUALITY
        CONTROLLED AND MAY MIS-REPORT RAIN FOR SNOW...
$$

 *****  OTHER OBSERVATIONS SOUTHEAST NORTH DAKOTA *****

CITY           SKY/WX    TMP DP  RH WIND       PRES   REMARKS
COOPERSTOWN    CLOUDY    30  30 100 N22G29    29.71S WCI  17
VALLEY CITY    MIX PCPN  30  30 100 N17G24    29.70S WCI  18
OAKES          NOT AVBL
GWINNER        CLOUDY    32  32 100 MISG      29.66R
SHEYENNE NWR     N/A     32  31  95 N10       29.95S WCI  24
BUFFALO        NOT AVBL
WYNDMERE         N/A     34  34 100 N20         N/A  WCI  22
 ***** THE ABOVE OBSERVATIONS ARE NON NWS ARE NOT QUALITY
       CONTROLLED AND MAY MIS-REPORT RAIN FOR SNOW...
$$

  *****  WEATHER ACROSS NORTHERN MINNESOTA  *****

CITY           SKY/WX    TMP DP  RH WIND       PRES   REMARKS
FLAG ISLAND    DRIZZLE   30  28  93 NE16      29.71R WCI  19
WARROAD        CLOUDY    32  28  86 N14G20    29.71R WCI  22
ROSEAU         CLOUDY    30  27  86 N15       29.71R WCI  19
HALLOCK        CLOUDY    30  28  93 N17       29.75R WCI  18
THF RVR FALLS  CLOUDY    31  30  96 N16       29.68R FOG     WCI  20
HALSTAD          N/A     32  30  94 N22         N/A  WCI  19
FOSSTON        CLOUDY    34  34 100 N17       29.63R FOG     WCI  23
BAUDETTE       CLOUDY    33  31  92 N12       29.66R WCI  24
WASKISH        DRIZZLE   36  34  93 NE9       29.63S
CROOKSTON      CLOUDY    32  30  93 N20       29.70R WCI  20
$$
  *****  WEATHER ACROSS CENTRAL AND WEST MINNESOTA  *****

CITY           SKY/WX    TMP DP  RH WIND       PRES   REMARKS
BEMIDJI        CLOUDY    38  37  98 N9        29.58S
PARK RAPIDS    CLOUDY    43  38  82 N10       29.55R
WADENA         CLOUDY    43  41  93 N7        29.53R
DETROIT LAKES  FOG       36  36 100 N18       29.59R VSB 1
MOORHEAD       CLOUDY    34  30  86 N24G30    29.65R WCI  21
FERGUS FALLS   CLOUDY    36  36 100 N20G28    29.58S FOG
ELBOW LAKE     FOG       37  37 100 NW16G23   29.57R VSB 1/2
MORRIS MN      CLOUDY    37  36  93 NW23G29   29.55S FOG
STAPLES        CLOUDY    43  39  87 NE7       29.52S
WHEATON        CLOUDY    36  34  93 NW18G25   29.63R FOG
$$
  *****  WEATHER ELSEWHERE ACROSS MINNESOTA  *****

CITY           SKY/WX    TMP DP  RH WIND       PRES   REMARKS
DULUTH         LGT RAIN  39  36  89 E10       29.58F
INTRNTL FALLS  LGT RAIN  36  34  92 N7        29.64R FOG
ELY            LGT RAIN  37  36  93 CALM      29.59F
CLOQUET        LGT RAIN  37  36  93 E7        29.57F
BRAINERD       CLOUDY    42  40  92 N7        29.52S
HIBBING        CLOUDY    37  36  96 CALM      29.57F
ALEXANDRIA     CLOUDY    44  43  96 NW12      29.52F FOG
SAINT CLOUD    MOCLDY    54  45  71 E7        29.47F
MINNEAPOLIS    CLOUDY    61  35  37 S8        29.49S
$$

  *****  WEATHER ACROSS SOUTH DAKOTA  *****

CITY           SKY/WX    TMP DP  RH WIND       PRES   REMARKS
SIOUX FALLS    CLOUDY    42  39  89 N12       29.57S
BROOKINGS      CLOUDY    37  36  96 N16G22    29.57F
WATERTOWN      CLOUDY    36  36 100 N16       29.60R FOG
HURON          CLOUDY    36  35  96 N20       29.63F
SISSETON         N/A     35  34  96 N22G29    29.62R WCI  23
ABERDEEN       CLOUDY    34  30  85 N15       29.68R WCI  24
MITCHELL       CLOUDY    39  36  89 N15       29.63S
PIERRE         CLOUDY    35  31  85 N15       29.65F
MOBRIDGE       CLOUDY    35  29  78 N14       29.68F
RAPID CITY     LGT RAIN  36  33  89 NE7       29.64F
$$

  *****  SOME WEATHER IN NEARBY STATES *****

CITY           SKY/WX    TMP DP  RH WIND       PRES   REMARKS
GLASGOW MT     CLOUDY    30  24  78 E14       29.85R WCI  19
GREAT FALLS MT CLOUDY    41  37  86 NW5       29.72R
CHEYENNE WY    MOCLDY    39  33  79 CALM      29.58R
SCOTTSBLUFF NE CLOUDY    46  43  89 S5        29.53F
OMAHA NE       MOCLDY    53  42  66 N12       29.49F
DES MOINES IA  FAIR      58  38  47 S7        29.53S
DAVENPORT IA   FAIR      55  32  41 SE10      29.63F
CHICAGO IL     FAIR      54  44  69 SE7       29.71F
EAU CLAIRE WI  CLOUDY    59  32  36 SE10      29.56F
LA CROSSE WI   FAIR      61  31  32 S9        29.58S
$$

  *****  SOME NATIONAL WEATHER *****

CITY           SKY/WX    TMP DP  RH WIND       PRES   REMARKS
LA GUARDIA NY  CLOUDY    50  47  89 NE21      30.08R
RALEIGH NC     HVY RAIN  60  59  96 NE15      29.59F FOG
ATLANTA GA     MOCLDY    59  56  89 NW8       29.74S
NEW ORLEANS LA FAIR      58  56  93 SW6       29.79S
OKLAHOMA CITY  MOCLDY    62  51  67 S20       29.44F
ALBUQUERQUE NM CLOUDY    63  21  20 S12       29.71F
SALT LAKE CITY FAIR      42  40  92 SE8       29.74F
LOS ANGELES CA MOCLDY    61  53  75 W10       29.86F
BOISE ID       CLOUDY    44  40  85 NW9       29.82R
SEATTLE WA     CLOUDY    49  44  83 S8        29.95S
$$

*** WEATHER ACROSS MANITOBA...SASKATCHEWAN AND ONTARIO ***
                ***ONTARIO***

CITY           SKY/WX    TMP DP  RH WIND       PRES   REMARKS
GERALDTON      CLOUDY    30  19  64 E13G21    29.85F WCI  20
THUNDER BAY    CLOUDY    37  32  81 E16       29.70F
SIOUX LOOKOUT  LGT SNOW  27  23  86 NE9G17    29.75S WCI  17
TORONTO        PTCLDY    45  32  61 E7        30.00S
BIG TROUT LK   CLOUDY    14   5  67 E8G17     30.17F WCI   3
PICKLE LAKE    NOT AVBL
DRYDEN         FLURRIES  28  27  93 NE16G25   29.71R WCI  17
KENORA         NOT AVBL
$$
                *** MANITOBA***

CITY           SKY/WX    TMP DP  RH WIND       PRES   REMARKS
BRANDON        PTCLDY    27  21  80 NE9       29.90R WCI  17
DAUPHIN        CLEAR     25  18  74 N10       29.99R WCI  15
ISLAND LAKE    CLEAR     12   1  62 NE6       30.15S WCI   3
PILOT MOUND      N/A     28  25  86 N14G21      N/A  WCI  17
THE PAS        PTCLDY    21   7  53 E7        30.15R WCI  13
THOMPSON       CLEAR      3  -6  66 E6        30.28R WCI  -8
WINNIPEG       CLOUDY    30  25  80 NE15      29.85R WCI  19
LYNN LAKE      CLEAR      5  -2  72 E6        30.22R WCI  -6
CHURCHILL      CLOUDY     1  -2  85 SW3       30.44S
GILLAM         CLEAR     -6 -11  77 NE5       30.37R WCI -17
$$
                ***SASKATCHEWAN***

CITY           SKY/WX    TMP DP  RH WIND       PRES   REMARKS
ESTEVAN        CLOUDY    28  21  74 NE14      29.89R WCI  17
KINDERSLEY     CLOUDY    28  23  80 SE15G22   29.89F WCI  17
LLOYDMINSTER   CLOUDY    28  28 100 SE12      29.93S WCI  18
PRINCE ALBERT  MOCLDY    27  16  63 E9        30.05S WCI  17
REGINA         CLOUDY    27  21  80 NE10G17   29.94S WCI  17
YORKTON        CLEAR     19  16  86 N8        29.99S WC



USA.gov is the U.S. government's official web portal to all federal, state and local government web resources and services.